Вернуться в каталог

STARLINK-6357

АктивенСвязьVLEO
NORAD 56783·PAYLOAD·🇺🇸 United States

Запущен May 31, 2023 с Vandenberg Space Force Base

Loading…

Ближайшие Пролёты (ближайшие 24 часа)

TLE

СвежийSource: CelesTrak SupGP

Эпоха: Sep 14, 2026, 22:01 UTC

1 56783C 23078S   26257.91784722  .00668980  00000+0  51690-1 0  2576
2 56783  70.0008 207.4116 0003075 266.9570 190.1334 15.01109625    19

Отслеживайте STARLINK-6357 в реальном времени с AllMySat

Download on the App Store